Truth Or Consequences, NM

10:37 AM MDT on April 24, 2018 (GMT -0600)
Truth Or Consequences Municipal

Weather History for KTCS - January, 2013

Change the Weather History Date:

Monday, January 7, 2013

  Actual Average Record
Temperature  
Mean Temperature 38 °F -  
Max Temperature 51 °F 53 °F 65 °F (2018)
Min Temperature 24 °F 28 °F 12 °F (1997)
Degree Days  
Heating Degree Days 27    
Month to date heating degree days 232  
Since 1 July heating degree days 1350  
Moisture  
Dew Point 19 °F    
Average Humidity 48    
Maximum Humidity 63    
Minimum Humidity 32    
Precipitation  
Precipitation 0.00 in - 0.05 in (2016)
Month to date precipitation T  
Year to date precipitation T  
Sea Level Pressure  
Sea Level Pressure 29.94 in    
Wind  
Wind Speed 5 mph (North)    
Max Wind Speed 12 mph    
Max Gust Speed 15 mph    
Visibility 10 miles    
Events      
T = Trace of Precipitation, MM = Missing Value Source: NWS Daily Summary

Daily Weather History Graph

Daily Weather History Graph

Search for Another Location

Airport or City:

Astronomy

Jan. 07, 2013 Rise Set
Actual Time 7:13 AM MST 5:17 PM MST
Civil Twilight 6:46 AM MST 5:45 PM MST
Nautical Twilight 6:15 AM MST 6:15 PM MST
Astronomical Twilight 5:45 AM MST 6:45 PM MST
Moon 2:43 AM MST (1/7) 1:28 PM MST (1/7)
Length of Visible Light 10h 58m
Length of Day
10h 04m
Waning Crescent, 22% of the Moon is Illuminated
Jan 7
Waning Crescent
Jan 11
New
Jan 18
First Quarter
Jan 26
Full
Feb 3
Last Quarter

Hourly Weather History & Observations

Time (MST) Temp. Windchill Dew Point Humidity Pressure Visibility Wind Dir Wind Speed Gust Speed Precip Events Conditions
12:53 AM 28.9 °F 23.9 °F 14.0 °F 54% 30.06 in 10.0 mi North 4.6 mph - N/A   Clear
1:53 AM 32.0 °F 25.6 °F 14.0 °F 48% 30.03 in 10.0 mi NNW 6.9 mph - N/A   Clear
2:53 AM 30.0 °F 25.2 °F 14.0 °F 51% 30.02 in 10.0 mi NW 4.6 mph - N/A   Clear
3:53 AM 30.9 °F 27.5 °F 16.0 °F 54% 29.99 in 10.0 mi NNW 3.5 mph - N/A   Clear
4:53 AM 26.1 °F 20.5 °F 14.0 °F 60% 30.01 in 10.0 mi NW 4.6 mph - N/A   Clear
5:53 AM 28.0 °F 22.8 °F 15.1 °F 58% 30.02 in 10.0 mi NNW 4.6 mph - N/A   Clear
6:53 AM 26.1 °F 21.9 °F 15.1 °F 63% 30.03 in 10.0 mi North 3.5 mph - N/A   Clear
7:53 AM 27.0 °F 23.0 °F 15.1 °F 61% 30.05 in 10.0 mi NW 3.5 mph - N/A   Clear
8:53 AM 36.0 °F 29.6 °F 18.0 °F 48% 30.03 in 10.0 mi NNE 8.1 mph - N/A   Clear
9:53 AM 39.9 °F 33.9 °F 18.0 °F 41% 30.01 in 10.0 mi NNE 9.2 mph - N/A   Clear
10:53 AM 42.1 °F 38.4 °F 19.0 °F 40% 29.99 in 10.0 mi NE 5.8 mph - N/A   Clear
11:53 AM 44.1 °F 40.1 °F 19.9 °F 38% 29.95 in 10.0 mi NNE 6.9 mph - N/A   Clear
12:53 PM 46.9 °F - 21.0 °F 36% 29.90 in 10.0 mi NE 8.1 mph - N/A   Clear
1:53 PM 48.9 °F - 21.9 °F 35% 29.86 in 10.0 mi NE 4.6 mph - N/A   Clear
2:53 PM 50.0 °F - 21.9 °F 33% 29.86 in 10.0 mi NE 5.8 mph - N/A   Clear
3:53 PM 50.0 °F - 21.9 °F 33% 29.85 in 10.0 mi NNE 4.6 mph - N/A   Clear
4:53 PM 48.9 °F - 21.9 °F 35% 29.86 in 10.0 mi NNE 3.5 mph - N/A   Clear
5:53 PM 44.1 °F 41.5 °F 21.9 °F 42% 29.88 in 10.0 mi North 4.6 mph - N/A   Clear
6:53 PM 43.0 °F 41.3 °F 21.9 °F 43% 29.87 in 10.0 mi North 3.5 mph - N/A   Clear
7:53 PM 41.0 °F 38.0 °F 21.0 °F 45% 29.89 in 10.0 mi North 4.6 mph - N/A   Clear
8:53 PM 39.0 °F 34.8 °F 21.0 °F 49% 29.86 in 10.0 mi NW 5.8 mph - N/A   Clear
9:53 PM 34.0 °F 27.2 °F 19.9 °F 56% 29.87 in 10.0 mi NW 8.1 mph - N/A   Clear
10:53 PM 34.0 °F 28.0 °F 21.0 °F 59% 29.86 in 10.0 mi NW 6.9 mph - N/A   Clear
11:53 PM 37.9 °F 34.4 °F 21.0 °F 51% 29.84 in 10.0 mi North 4.6 mph - N/A   Clear